| time (UTC) | temp F | wind direction | speed MPH | gust MPH | rain 1hr in | rain 24hr in | rain mn in | humidity % | barometer mb |
| 20260904074009 | 74 | 90 | 0.0 | 0.0 | 0.00 | 0.00 | 0.00 | 88 | 1021.6 |
| 20260904073503 | 74 | 90 | 0.0 | 0.0 | 0.00 | 0.00 | 0.00 | 88 | 1021.7 |
| 20260904073007 | 74 | 15 | 0.0 | 0.0 | 0.00 | 0.00 | 0.00 | 88 | 1021.7 |
| 20260904072501 | 74 | 15 | 0.0 | 1.0 | 0.00 | 0.00 | 0.00 | 88 | 1021.6 |
| 20260904072000 | 73 | 15 | 0.0 | 3.0 | 0.00 | 0.00 | 0.00 | 88 | 1021.7 |
| 20260904071600 | 73 | 14 | 0.0 | 3.0 | 0.00 | 0.00 | 0.00 | 87 | 1021.7 |
| 20260904071100 | 72 | 13 | 1.0 | 3.0 | 0.00 | 0.00 | 0.00 | 85 | 1021.7 |
| 20260904070557 | 72 | 10 | 1.0 | 5.0 | 0.00 | 0.00 | 0.00 | 84 | 1021.7 |
| 20260904070116 | 72 | 5 | 1.0 | 5.0 | 0.00 | 0.00 | 0.00 | 83 | 1021.8 |
| 20260904065557 | 71 | 355 | 1.0 | 4.0 | 0.00 | 0.00 | 0.00 | 84 | 1021.8 |
| 20260904065056 | 71 | 355 | 1.0 | 4.0 | 0.00 | 0.00 | 0.00 | 83 | 1021.8 |
| 20260904064551 | 71 | 350 | 0.0 | 2.0 | 0.00 | 0.00 | 0.00 | 84 | 1021.8 |
| 20260904064051 | 71 | 341 | 0.0 | 3.0 | 0.00 | 0.00 | 0.00 | 85 | 1021.7 |
| 20260904063554 | 71 | 342 | 1.0 | 4.0 | 0.00 | 0.00 | 0.00 | 86 | 1021.5 |
| 20260904063100 | 70 | 355 | 1.0 | 4.0 | 0.00 | 0.00 | 0.00 | 83 | 1021.6 |
| 20260904062550 | 70 | 343 | 2.0 | 4.0 | 0.00 | 0.00 | 0.00 | 83 | 1021.5 |
| 20260904062049 | 70 | 350 | 0.0 | 3.0 | 0.00 | 0.00 | 0.00 | 84 | 1021.5 |
| 20260904061549 | 70 | 350 | 1.0 | 3.0 | 0.00 | 0.00 | 0.00 | 85 | 1021.3 |
| 20260904061048 | 70 | 349 | 0.0 | 2.0 | 0.00 | 0.00 | 0.00 | 86 | 1021.3 |
| 20260904060548 | 70 | 350 | 0.0 | 2.0 | 0.00 | 0.00 | 0.00 | 86 | 1021.3 |
| 20260904060048 | 70 | 350 | 0.0 | 0.0 | 0.00 | 0.00 | 0.00 | 84 | 1021.3 |
| 20260904055546 | 70 | 350 | 0.0 | 0.0 | 0.00 | 0.00 | 0.00 | 84 | 1021.2 |
| 20260904055050 | 71 | 350 | 0.0 | 1.0 | 0.00 | 0.00 | 0.00 | 85 | 1021.2 |
| 20260904054546 | 71 | 350 | 0.0 | 1.0 | 0.00 | 0.00 | 0.00 | 84 | 1021.2 |
| 20260904054045 | 70 | 350 | 0.0 | 1.0 | 0.00 | 0.00 | 0.00 | 81 | 1021.1 |
| 20260904053544 | 70 | 350 | 0.0 | 3.0 | 0.00 | 0.00 | 0.00 | 78 | 1021.0 |
| 20260904053044 | 70 | 350 | 1.0 | 3.0 | 0.00 | 0.00 | 0.00 | 78 | 1021.1 |
| 20260904052543 | 70 | 355 | 1.0 | 2.0 | 0.00 | 0.00 | 0.00 | 81 | 1021.0 |
| 20260904052042 | 71 | 355 | 0.0 | 1.0 | 0.00 | 0.00 | 0.00 | 83 | 1021.1 |
| 20260904051542 | 71 | 355 | 0.0 | 1.0 | 0.00 | 0.00 | 0.00 | 83 | 1021.2 |
| 20260904051042 | 71 | 355 | 0.0 | 1.0 | 0.00 | 0.00 | 0.00 | 82 | 1021.4 |
| 20260904050540 | 71 | 355 | 0.0 | 1.0 | 0.00 | 0.00 | 0.00 | 81 | 1021.4 |
| 20260904050041 | 71 | 355 | 0.0 | 1.0 | 0.00 | 0.00 | 0.00 | 79 | 1021.4 |
| 20260904045541 | 71 | 355 | 0.0 | 2.0 | 0.00 | 0.00 | 0.00 | 77 | 1021.3 |
| 20260904045039 | 71 | 355 | 0.0 | 3.0 | 0.00 | 0.00 | 0.00 | 76 | 1021.3 |
| 20260904044539 | 71 | 355 | 1.0 | 4.0 | 0.00 | 0.00 | 0.00 | 76 | 1021.4 |
| 20260904044038 | 71 | 350 | 2.0 | 5.0 | 0.00 | 0.00 | 0.00 | 76 | 1021.4 |
| 20260904043549 | 71 | 319 | 2.0 | 5.0 | 0.00 | 0.00 | 0.00 | 77 | 1021.4 |
| 20260904043038 | 71 | 360 | 1.0 | 4.0 | 0.00 | 0.00 | 0.00 | 78 | 1021.3 |
| 20260904042538 | 71 | 360 | 1.0 | 4.0 | 0.00 | 0.00 | 0.00 | 77 | 1021.2 |
| 20260904042038 | 71 | 342 | 1.0 | 3.0 | 0.00 | 0.00 | 0.00 | 78 | 1021.3 |
| 20260904041538 | 71 | 336 | 0.0 | 3.0 | 0.00 | 0.00 | 0.00 | 76 | 1021.3 |
| 20260904041040 | 71 | 329 | 1.0 | 4.0 | 0.00 | 0.00 | 0.00 | 75 | 1021.3 |
| 20260904040537 | 71 | 5 | 1.0 | 4.0 | 0.00 | 0.00 | 0.00 | 76 | 1021.3 |
| 20260904040039 | 72 | 341 | 0.0 | 1.0 | 0.00 | 0.00 | 0.00 | 79 | 1021.4 |
| 20260904035537 | 72 | 341 | 0.0 | 2.0 | 0.00 | 0.00 | 0.00 | 79 | 1021.4 |
| 20260904035035 | 71 | 341 | 1.0 | 4.0 | 0.00 | 0.00 | 0.00 | 75 | 1021.2 |
| 20260904034535 | 71 | 340 | 1.0 | 4.0 | 0.00 | 0.00 | 0.00 | 74 | 1021.2 |
| 20260904034039 | 71 | 355 | 2.0 | 4.0 | 0.00 | 0.00 | 0.00 | 75 | 1021.2 |
| 20260904033535 | 72 | 346 | 0.0 | 4.0 | 0.00 | 0.00 | 0.00 | 75 | 1021.4 |
| 20260904033036 | 72 | 340 | 0.0 | 3.0 | 0.00 | 0.00 | 0.00 | 75 | 1021.5 |
| 20260904032533 | 72 | 327 | 0.0 | 4.0 | 0.00 | 0.00 | 0.00 | 76 | 1021.5 |
| 20260904032033 | 72 | 327 | 0.0 | 4.0 | 0.00 | 0.00 | 0.00 | 75 | 1021.5 |
| 20260904031535 | 72 | 334 | 1.0 | 4.0 | 0.00 | 0.00 | 0.00 | 75 | 1021.4 |
| 20260904031034 | 72 | 360 | 0.0 | 3.0 | 0.00 | 0.00 | 0.00 | 76 | 1021.4 |
| 20260904030532 | 72 | 360 | 1.0 | 3.0 | 0.00 | 0.00 | 0.00 | 75 | 1021.4 |
| 20260904030031 | 72 | 360 | 0.0 | 2.0 | 0.00 | 0.00 | 0.00 | 76 | 1021.4 |
| 20260904025531 | 73 | 360 | 0.0 | 0.0 | 0.00 | 0.00 | 0.00 | 79 | 1021.3 |
| 20260904025031 | 73 | 360 | 0.0 | 1.0 | 0.00 | 0.00 | 0.00 | 77 | 1021.3 |
| 20260904024531 | 73 | 360 | 0.0 | 1.0 | 0.00 | 0.00 | 0.00 | 75 | 1021.2 |
| 20260904024030 | 73 | 360 | 0.0 | 0.0 | 0.00 | 0.00 | 0.00 | 75 | 1021.1 |
| 20260904023529 | 73 | 360 | 0.0 | 3.0 | 0.00 | 0.00 | 0.00 | 74 | 1021.0 |
| 20260904023029 | 73 | 360 | 0.0 | 5.0 | 0.00 | 0.00 | 0.00 | 73 | 1021.1 |
| 20260904022529 | 73 | 360 | 2.0 | 5.0 | 0.00 | 0.00 | 0.00 | 73 | 1021.0 |
| 20260904022033 | 73 | 355 | 2.0 | 5.0 | 0.00 | 0.00 | 0.00 | 74 | 1021.0 |
| 20260904021535 | 73 | 355 | 3.0 | 5.0 | 0.00 | 0.00 | 0.00 | 74 | 1021.0 |
| 20260904021029 | 73 | 339 | 2.0 | 5.0 | 0.00 | 0.00 | 0.00 | 75 | 1021.0 |
| 20260904020528 | 73 | 351 | 3.0 | 5.0 | 0.00 | 0.00 | 0.00 | 75 | 1021.0 |
| 20260904020026 | 73 | 346 | 2.0 | 6.0 | 0.00 | 0.00 | 0.00 | 76 | 1021.1 |
| 20260904015526 | 73 | 333 | 2.0 | 6.0 | 0.00 | 0.00 | 0.00 | 76 | 1021.0 |
| 20260904015027 | 73 | 311 | 2.0 | 5.0 | 0.00 | 0.00 | 0.00 | 77 | 1021.2 |
| 20260904014525 | 73 | 326 | 3.0 | 5.0 | 0.00 | 0.00 | 0.00 | 77 | 1021.3 |
| 20260904014022 | 73 | 344 | 2.0 | 5.0 | 0.00 | 0.00 | 0.00 | 78 | 1021.2 |
| 20260904013521 | 73 | 323 | 2.0 | 4.0 | 0.00 | 0.00 | 0.00 | 78 | 1021.4 |
| 20260904013023 | 73 | 344 | 1.0 | 6.0 | 0.00 | 0.00 | 0.00 | 78 | 1021.4 |
| 20260904012520 | 73 | 334 | 3.0 | 6.0 | 0.00 | 0.00 | 0.00 | 78 | 1021.5 |
| 20260904012026 | 73 | 314 | 1.0 | 3.0 | 0.00 | 0.00 | 0.00 | 81 | 1021.7 |
| 20260904011518 | 73 | 317 | 1.0 | 4.0 | 0.00 | 0.00 | 0.00 | 83 | 1021.7 |
| 20260904011019 | 74 | 322 | 1.0 | 5.0 | 0.00 | 0.00 | 0.00 | 83 | 1021.7 |
| 20260904010520 | 74 | 329 | 2.0 | 5.0 | 0.00 | 0.00 | 0.00 | 83 | 1021.7 |
| 20260904010018 | 74 | 319 | 1.0 | 4.0 | 0.00 | 0.00 | 0.00 | 83 | 1021.9 |
| 20260904005518 | 74 | 331 | 0.0 | 3.0 | 0.00 | 0.00 | 0.00 | 84 | 1021.9 |
| 20260904005017 | 74 | 331 | 0.0 | 2.0 | 0.00 | 0.00 | 0.00 | 84 | 1021.9 |
| 20260904004517 | 74 | 331 | 0.0 | 3.0 | 0.00 | 0.00 | 0.00 | 83 | 1022.0 |
| 20260904004017 | 74 | 330 | 1.0 | 3.0 | 0.00 | 0.00 | 0.00 | 81 | 1022.0 |
| 20260904003516 | 74 | 329 | 1.0 | 4.0 | 0.00 | 0.00 | 0.00 | 81 | 1022.0 |
| 20260904003015 | 74 | 350 | 1.0 | 4.0 | 0.00 | 0.00 | 0.00 | 82 | 1022.0 |
| 20260904002515 | 74 | 355 | 0.0 | 0.0 | 0.00 | 0.00 | 0.00 | 83 | 1022.0 |
| 20260904002016 | 74 | 355 | 0.0 | 0.0 | 0.00 | 0.00 | 0.00 | 83 | 1022.0 |
| 20260904001517 | 74 | 355 | 0.0 | 0.0 | 0.00 | 0.00 | 0.00 | 83 | 1022.0 |
| 20260904001014 | 74 | 355 | 0.0 | 0.0 | 0.00 | 0.00 | 0.00 | 83 | 1021.9 |
| 20260904000514 | 74 | 355 | 0.0 | 0.0 | 0.00 | 0.00 | 0.00 | 84 | 1021.8 |
| 20260904000015 | 74 | 355 | 0.0 | 0.0 | 0.00 | 0.00 | 0.00 | 84 | 1021.8 |
| 20260903235513 | 74 | 355 | 0.0 | 0.0 | 0.00 | 0.00 | 0.00 | 83 | 1021.8 |
| 20260903235013 | 74 | 355 | 0.0 | 0.0 | 0.00 | 0.00 | 0.00 | 81 | 1021.8 |
| 20260903234513 | 74 | 355 | 0.0 | 0.0 | 0.00 | 0.00 | 0.00 | 80 | 1021.8 |
| 20260903234012 | 74 | 350 | 0.0 | 0.0 | 0.00 | 0.00 | 0.00 | 80 | 1021.8 |
| 20260903233510 | 74 | 350 | 0.0 | 0.0 | 0.00 | 0.00 | 0.00 | 82 | 1021.8 |
| 20260903233010 | 75 | 345 | 0.0 | 0.0 | 0.00 | 0.00 | 0.00 | 85 | 1021.8 |
| 20260903232510 | 75 | 344 | 0.0 | 0.0 | 0.00 | 0.00 | 0.00 | 85 | 1021.9 |
| 20260903232009 | 75 | 344 | 0.0 | 0.0 | 0.00 | 0.00 | 0.00 | 85 | 1022.0 |
| 20260903231507 | 75 | 344 | 0.0 | 0.0 | 0.00 | 0.00 | 0.00 | 85 | 1022.0 |
| 20260903231007 | 75 | 344 | 0.0 | 0.0 | 0.00 | 0.00 | 0.00 | 86 | 1022.0 |
| 20260903230507 | 75 | 344 | 0.0 | 0.0 | 0.00 | 0.00 | 0.00 | 85 | 1021.9 |
| 20260903230011 | 75 | 344 | 0.0 | 0.0 | 0.00 | 0.00 | 0.00 | 85 | 1021.9 |
| 20260903225507 | 75 | 344 | 0.0 | 0.0 | 0.00 | 0.00 | 0.00 | 85 | 1021.9 |
| 20260903225005 | 75 | 344 | 0.0 | 0.0 | 0.00 | 0.00 | 0.00 | 85 | 1021.8 |
| 20260903224504 | 75 | 344 | 0.0 | 0.0 | 0.00 | 0.00 | 0.00 | 85 | 1021.8 |
| 20260903224004 | 76 | 344 | 0.0 | 0.0 | 0.00 | 0.00 | 0.00 | 85 | 1021.8 |
| 20260903223505 | 76 | 344 | 0.0 | 0.0 | 0.00 | 0.00 | 0.00 | 85 | 1021.8 |
| 20260903223003 | 76 | 344 | 0.0 | 0.0 | 0.00 | 0.00 | 0.00 | 85 | 1021.7 |
| 20260903222503 | 76 | 344 | 0.0 | 0.0 | 0.00 | 0.00 | 0.00 | 85 | 1021.6 |
| 20260903222004 | 76 | 344 | 0.0 | 0.0 | 0.00 | 0.00 | 0.00 | 85 | 1021.7 |
| 20260903221601 | 76 | 344 | 0.0 | 0.0 | 0.00 | 0.00 | 0.00 | 85 | 1021.7 |
| 20260903221100 | 76 | 344 | 0.0 | 0.0 | 0.00 | 0.00 | 0.00 | 84 | 1021.6 |
| 20260903220557 | 76 | 344 | 0.0 | 0.0 | 0.00 | 0.00 | 0.00 | 84 | 1021.7 |
| 20260903220122 | 76 | 344 | 0.0 | 0.0 | 0.00 | 0.00 | 0.00 | 84 | 1021.6 |
| 20260903215557 | 76 | 344 | 0.0 | 3.0 | 0.00 | 0.00 | 0.00 | 84 | 1021.7 |
| 20260903215055 | 76 | 344 | 1.0 | 3.0 | 0.00 | 0.00 | 0.00 | 84 | 1021.8 |
| 20260903214555 | 76 | 329 | 0.0 | 1.0 | 0.00 | 0.00 | 0.00 | 85 | 1021.8 |
| 20260903214056 | 77 | 329 | 0.0 | 2.0 | 0.00 | 0.00 | 0.00 | 85 | 1021.8 |
| 20260903213556 | 77 | 329 | 0.0 | 2.0 | 0.00 | 0.00 | 0.00 | 84 | 1021.9 |
| 20260903213055 | 77 | 329 | 0.0 | 0.0 | 0.00 | 0.00 | 0.00 | 84 | 1021.8 |
| 20260903212555 | 77 | 329 | 0.0 | 0.0 | 0.00 | 0.00 | 0.00 | 84 | 1021.8 |
| 20260903212055 | 77 | 329 | 0.0 | 0.0 | 0.00 | 0.00 | 0.00 | 84 | 1021.8 |
| 20260903211557 | 77 | 329 | 0.0 | 0.0 | 0.00 | 0.00 | 0.00 | 84 | 1021.9 |
| 20260903211057 | 77 | 329 | 0.0 | 0.0 | 0.00 | 0.00 | 0.00 | 83 | 1021.9 |
| 20260903210555 | 77 | 329 | 0.0 | 0.0 | 0.00 | 0.00 | 0.00 | 83 | 1021.9 |
| 20260903210059 | 77 | 329 | 0.0 | 0.0 | 0.00 | 0.00 | 0.00 | 83 | 1022.0 |
| 20260903205556 | 77 | 329 | 0.0 | 0.0 | 0.00 | 0.00 | 0.00 | 83 | 1022.0 |
| 20260903205053 | 77 | 329 | 0.0 | 0.0 | 0.00 | 0.00 | 0.00 | 82 | 1021.9 |
| 20260903204553 | 78 | 329 | 0.0 | 0.0 | 0.00 | 0.00 | 0.00 | 82 | 1022.0 |
| 20260903204052 | 78 | 329 | 0.0 | 0.0 | 0.00 | 0.00 | 0.00 | 82 | 1022.0 |
| 20260903203552 | 78 | 329 | 0.0 | 0.0 | 0.00 | 0.00 | 0.00 | 82 | 1021.9 |
| 20260903203104 | 79 | 329 | 0.0 | 0.0 | 0.00 | 0.00 | 0.00 | 82 | 1021.8 |
| 20260903202553 | 79 | 329 | 0.0 | 0.0 | 0.00 | 0.00 | 0.00 | 81 | 1021.7 |
| 20260903202057 | 79 | 329 | 0.0 | 0.0 | 0.00 | 0.00 | 0.00 | 81 | 1021.4 |
| 20260903201553 | 79 | 329 | 0.0 | 0.0 | 0.00 | 0.00 | 0.00 | 80 | 1021.4 |
| 20260903201052 | 80 | 329 | 0.0 | 1.0 | 0.00 | 0.00 | 0.00 | 80 | 1021.3 |
| 20260903200554 | 80 | 329 | 0.0 | 1.0 | 0.00 | 0.00 | 0.00 | 79 | 1021.2 |
| 20260903200052 | 80 | 329 | 0.0 | 0.0 | 0.00 | 0.00 | 0.00 | 78 | 1021.3 |
| 20260903195551 | 80 | 329 | 0.0 | 2.0 | 0.00 | 0.00 | 0.00 | 76 | 1021.2 |
| 20260903195051 | 80 | 328 | 0.0 | 4.0 | 0.00 | 0.00 | 0.00 | 71 | 1021.1 |
| 20260903194555 | 81 | 327 | 1.0 | 4.0 | 0.00 | 0.00 | 0.00 | 73 | 1021.0 |
| 20260903194051 | 81 | 360 | 0.0 | 2.0 | 0.00 | 0.00 | 0.00 | 77 | 1020.8 |
| 20260903193551 | 81 | 360 | 0.0 | 4.0 | 0.00 | 0.00 | 0.00 | 77 | 1020.8 |
| 20260903193051 | 81 | 360 | 1.0 | 4.0 | 0.00 | 0.00 | 0.00 | 69 | 1020.7 |
| 20260903192550 | 81 | 5 | 1.0 | 5.0 | 0.00 | 0.00 | 0.00 | 70 | 1020.6 |
| 20260903192050 | 81 | 9 | 1.0 | 6.0 | 0.00 | 0.00 | 0.00 | 71 | 1020.4 |
| 20260903191550 | 81 | 9 | 3.0 | 6.0 | 0.00 | 0.00 | 0.00 | 72 | 1020.4 |
| 20260903191051 | 80 | 344 | 2.0 | 5.0 | 0.00 | 0.00 | 0.00 | 73 | 1020.4 |
| 20260903190555 | 80 | 355 | 1.0 | 5.0 | 0.00 | 0.00 | 0.00 | 76 | 1020.4 |
| 20260903190050 | 81 | 288 | 1.0 | 4.0 | 0.00 | 0.00 | 0.00 | 78 | 1020.5 |
| 20260903185551 | 81 | 138 | 0.0 | 0.0 | 0.00 | 0.00 | 0.00 | 79 | 1020.4 |
| 20260903185051 | 81 | 138 | 0.0 | 0.0 | 0.00 | 0.00 | 0.00 | 79 | 1020.4 |
| 20260903184550 | 81 | 138 | 0.0 | 0.0 | 0.00 | 0.00 | 0.00 | 79 | 1020.5 |
| 20260903184050 | 81 | 138 | 0.0 | 0.0 | 0.00 | 0.00 | 0.00 | 79 | 1020.6 |
| 20260903183549 | 82 | 138 | 0.0 | 0.0 | 0.00 | 0.00 | 0.00 | 78 | 1020.6 |
| 20260903183049 | 82 | 138 | 0.0 | 0.0 | 0.00 | 0.00 | 0.00 | 78 | 1020.6 |
| 20260903182549 | 82 | 138 | 0.0 | 0.0 | 0.00 | 0.00 | 0.00 | 78 | 1020.6 |
| 20260903182049 | 82 | 138 | 0.0 | 0.0 | 0.00 | 0.00 | 0.00 | 77 | 1020.6 |
| 20260903181549 | 82 | 138 | 0.0 | 0.0 | 0.00 | 0.00 | 0.00 | 77 | 1020.7 |
| 20260903181048 | 82 | 138 | 0.0 | 0.0 | 0.00 | 0.00 | 0.00 | 77 | 1020.6 |
| 20260903180549 | 82 | 138 | 0.0 | 0.0 | 0.00 | 0.00 | 0.00 | 77 | 1020.6 |
| 20260903180050 | 82 | 138 | 0.0 | 0.0 | 0.00 | 0.00 | 0.00 | 77 | 1020.6 |
| 20260903175549 | 83 | 137 | 0.0 | 0.0 | 0.00 | 0.00 | 0.00 | 76 | 1020.7 |
| 20260903175048 | 83 | 137 | 0.0 | 0.0 | 0.00 | 0.00 | 0.00 | 77 | 1020.6 |
| 20260903174548 | 83 | 137 | 0.0 | 0.0 | 0.00 | 0.00 | 0.00 | 77 | 1020.7 |
| 20260903174048 | 82 | 137 | 0.0 | 0.0 | 0.00 | 0.00 | 0.00 | 77 | 1020.7 |
| 20260903173552 | 82 | 137 | 0.0 | 0.0 | 0.00 | 0.00 | 0.00 | 77 | 1020.7 |
| 20260903173047 | 82 | 137 | 0.0 | 0.0 | 0.00 | 0.00 | 0.00 | 77 | 1020.8 |
| 20260903172548 | 82 | 137 | 0.0 | 0.0 | 0.00 | 0.00 | 0.00 | 77 | 1020.8 |
| 20260903172047 | 82 | 137 | 0.0 | 0.0 | 0.00 | 0.00 | 0.00 | 77 | 1020.8 |
| 20260903171551 | 82 | 137 | 0.0 | 0.0 | 0.00 | 0.00 | 0.00 | 77 | 1020.8 |
| 20260903171047 | 82 | 137 | 0.0 | 0.0 | 0.00 | 0.00 | 0.00 | 78 | 1020.9 |
| 20260903170547 | 82 | 137 | 0.0 | 3.0 | 0.00 | 0.00 | 0.00 | 78 | 1020.9 |
| 20260903170048 | 82 | 137 | 0.0 | 3.0 | 0.00 | 0.00 | 0.00 | 78 | 1020.9 |
| 20260903165546 | 82 | 130 | 1.0 | 4.0 | 0.00 | 0.00 | 0.00 | 78 | 1021.0 |
| 20260903165050 | 82 | 124 | 2.0 | 4.0 | 0.00 | 0.00 | 0.00 | 78 | 1020.9 |
| 20260903164547 | 82 | 130 | 1.0 | 7.0 | 0.00 | 0.00 | 0.00 | 78 | 1020.9 |
| 20260903164046 | 83 | 123 | 3.0 | 7.0 | 0.00 | 0.00 | 0.00 | 77 | 1020.9 |
| 20260903163546 | 83 | 155 | 1.0 | 7.0 | 0.00 | 0.00 | 0.00 | 77 | 1021.0 |
| 20260903163046 | 82 | 144 | 2.0 | 7.0 | 0.00 | 0.00 | 0.00 | 77 | 1021.0 |
| 20260903162545 | 82 | 113 | 3.0 | 7.0 | 0.00 | 0.00 | 0.00 | 77 | 1021.1 |
| 20260903162045 | 82 | 152 | 2.0 | 9.0 | 0.00 | 0.00 | 0.00 | 77 | 1021.0 |
| 20260903161545 | 82 | 117 | 4.0 | 9.0 | 0.00 | 0.00 | 0.00 | 77 | 1021.0 |
| 20260903161045 | 83 | 126 | 6.0 | 9.0 | 0.00 | 0.00 | 0.00 | 76 | 1021.1 |
| 20260903160544 | 83 | 154 | 5.0 | 8.0 | 0.00 | 0.00 | 0.00 | 75 | 1021.2 |
| 20260903160046 | 83 | 120 | 3.0 | 7.0 | 0.00 | 0.00 | 0.00 | 74 | 1021.1 |
| 20260903155548 | 84 | 110 | 4.0 | 8.0 | 0.00 | 0.00 | 0.00 | 74 | 1021.1 |
| 20260903155043 | 83 | 171 | 2.0 | 8.0 | 0.00 | 0.00 | 0.00 | 74 | 1021.1 |
| 20260903154644 | 83 | 136 | 3.0 | 8.0 | 0.00 | 0.00 | 0.00 | 74 | 1021.2 |
| 20260903154043 | 83 | 150 | 3.0 | 9.0 | 0.00 | 0.00 | 0.00 | 75 | 1021.3 |
| 20260903153543 | 82 | 159 | 3.0 | 10.0 | 0.00 | 0.00 | 0.00 | 75 | 1021.4 |
| 20260903153043 | 83 | 112 | 5.0 | 10.0 | 0.00 | 0.00 | 0.00 | 75 | 1021.4 |
| 20260903152543 | 83 | 102 | 5.0 | 10.0 | 0.00 | 0.00 | 0.00 | 74 | 1021.5 |
| 20260903152042 | 83 | 117 | 3.0 | 8.0 | 0.00 | 0.00 | 0.00 | 74 | 1021.4 |
| 20260903151544 | 83 | 138 | 3.0 | 9.0 | 0.00 | 0.00 | 0.00 | 74 | 1021.3 |
| 20260903151042 | 83 | 138 | 4.0 | 9.0 | 0.00 | 0.00 | 0.00 | 74 | 1021.4 |
| 20260903150542 | 84 | 123 | 5.0 | 9.0 | 0.00 | 0.00 | 0.00 | 73 | 1021.4 |
| 20260903150103 | 83 | 194 | 4.0 | 9.0 | 0.00 | 0.00 | 0.00 | 73 | 1021.4 |
| 20260903145541 | 83 | 180 | 3.0 | 9.0 | 0.00 | 0.00 | 0.00 | 73 | 1021.5 |
| 20260903145041 | 83 | 141 | 4.0 | 9.0 | 0.00 | 0.00 | 0.00 | 74 | 1021.5 |
| 20260903144541 | 83 | 163 | 4.0 | 11.0 | 0.00 | 0.00 | 0.00 | 74 | 1021.6 |
| 20260903144041 | 83 | 117 | 5.0 | 11.0 | 0.00 | 0.00 | 0.00 | 74 | 1021.6 |
| 20260903143541 | 83 | 109 | 4.0 | 11.0 | 0.00 | 0.00 | 0.00 | 74 | 1021.6 |
| 20260903143040 | 83 | 155 | 4.0 | 11.0 | 0.00 | 0.00 | 0.00 | 74 | 1021.6 |
| 20260903142540 | 83 | 109 | 4.0 | 12.0 | 0.00 | 0.00 | 0.00 | 74 | 1021.7 |
| 20260903142039 | 83 | 128 | 5.0 | 10.0 | 0.00 | 0.00 | 0.00 | 74 | 1021.6 |
| 20260903141541 | 83 | 126 | 4.0 | 10.0 | 0.00 | 0.00 | 0.00 | 74 | 1021.7 |
| 20260903141038 | 83 | 120 | 6.0 | 10.0 | 0.00 | 0.00 | 0.00 | 74 | 1021.8 |
| 20260903140538 | 83 | 122 | 5.0 | 9.0 | 0.00 | 0.00 | 0.00 | 74 | 1021.7 |
| 20260903140041 | 83 | 148 | 5.0 | 10.0 | 0.00 | 0.00 | 0.00 | 74 | 1021.8 |
| 20260903135538 | 82 | 167 | 4.0 | 10.0 | 0.00 | 0.00 | 0.00 | 75 | 1021.7 |
| 20260903135037 | 82 | 113 | 5.0 | 11.0 | 0.00 | 0.00 | 0.00 | 75 | 1021.9 |
| 20260903134547 | 82 | 159 | 6.0 | 12.0 | 0.00 | 0.00 | 0.00 | 75 | 1021.9 |
| 20260903134038 | 82 | 113 | 6.0 | 12.0 | 0.00 | 0.00 | 0.00 | 75 | 1021.9 |
| 20260903133540 | 82 | 144 | 5.0 | 11.0 | 0.00 | 0.00 | 0.00 | 75 | 1022.0 |
| 20260903133039 | 82 | 167 | 5.0 | 11.0 | 0.00 | 0.00 | 0.00 | 75 | 1021.9 |
| 20260903132537 | 81 | 163 | 4.0 | 11.0 | 0.00 | 0.00 | 0.00 | 76 | 1022.0 |
| 20260903132036 | 81 | 136 | 7.0 | 13.0 | 0.00 | 0.00 | 0.00 | 75 | 1022.0 |
| 20260903131537 | 82 | 125 | 6.0 | 13.0 | 0.00 | 0.00 | 0.00 | 75 | 1022.1 |
| 20260903131039 | 82 | 119 | 2.0 | 9.0 | 0.00 | 0.00 | 0.00 | 75 | 1022.1 |
| 20260903130538 | 82 | 109 | 4.0 | 9.0 | 0.00 | 0.00 | 0.00 | 75 | 1022.1 |
| 20260903130036 | 82 | 111 | 3.0 | 9.0 | 0.00 | 0.00 | 0.00 | 76 | 1022.0 |
| 20260903125536 | 82 | 128 | 4.0 | 11.0 | 0.00 | 0.00 | 0.00 | 76 | 1022.0 |
| 20260903125034 | 82 | 142 | 4.0 | 13.0 | 0.00 | 0.00 | 0.00 | 76 | 1022.1 |
| 20260903124548 | 82 | 137 | 5.0 | 13.0 | 0.00 | 0.00 | 0.00 | 75 | 1022.1 |
| 20260903124034 | 82 | 105 | 3.0 | 8.0 | 0.00 | 0.00 | 0.00 | 75 | 1022.2 |
| 20260903123534 | 81 | 159 | 3.0 | 9.0 | 0.00 | 0.00 | 0.00 | 76 | 1022.2 |
| 20260903123036 | 81 | 119 | 3.0 | 9.0 | 0.00 | 0.00 | 0.00 | 77 | 1022.1 |
| 20260903122534 | 81 | 135 | 5.0 | 10.0 | 0.00 | 0.00 | 0.00 | 77 | 1022.2 |
| 20260903122034 | 81 | 147 | 3.0 | 10.0 | 0.00 | 0.00 | 0.00 | 77 | 1022.1 |
| 20260903121534 | 82 | 99 | 4.0 | 8.0 | 0.00 | 0.00 | 0.00 | 77 | 1022.2 |
| 20260903121034 | 82 | 138 | 3.0 | 13.0 | 0.00 | 0.00 | 0.00 | 77 | 1022.3 |
| 20260903120534 | 82 | 144 | 3.0 | 13.0 | 0.00 | 0.00 | 0.00 | 76 | 1022.3 |
| 20260903120034 | 82 | 106 | 4.0 | 13.0 | 0.00 | 0.00 | 0.00 | 76 | 1022.2 |
| 20260903115533 | 82 | 127 | 4.0 | 10.0 | 0.00 | 0.00 | 0.00 | 76 | 1022.3 |
| 20260903115032 | 82 | 115 | 4.0 | 9.0 | 0.00 | 0.00 | 0.00 | 78 | 1022.2 |
| 20260903114531 | 82 | 131 | 4.0 | 12.0 | 0.00 | 0.00 | 0.00 | 78 | 1022.2 |
| 20260903114032 | 81 | 133 | 3.0 | 12.0 | 0.00 | 0.00 | 0.00 | 78 | 1022.3 |
| 20260903113531 | 81 | 190 | 5.0 | 12.0 | 0.00 | 0.00 | 0.00 | 78 | 1022.3 |
| 20260903113030 | 81 | 134 | 6.0 | 11.0 | 0.00 | 0.00 | 0.00 | 78 | 1022.5 |
| 20260903112529 | 81 | 141 | 5.0 | 15.0 | 0.00 | 0.00 | 0.00 | 78 | 1022.4 |
| 20260903112029 | 81 | 123 | 7.0 | 15.0 | 0.00 | 0.00 | 0.00 | 78 | 1022.5 |
| 20260903111528 | 81 | 122 | 7.0 | 12.0 | 0.00 | 0.00 | 0.00 | 78 | 1022.4 |
| 20260903111028 | 81 | 121 | 5.0 | 10.0 | 0.00 | 0.00 | 0.00 | 77 | 1022.4 |
| 20260903110527 | 81 | 111 | 5.0 | 10.0 | 0.00 | 0.00 | 0.00 | 78 | 1022.6 |
| 20260903110027 | 81 | 137 | 4.0 | 12.0 | 0.00 | 0.00 | 0.00 | 77 | 1022.6 |
| 20260903105526 | 81 | 130 | 6.0 | 12.0 | 0.00 | 0.00 | 0.00 | 77 | 1022.5 |
| 20260903105026 | 82 | 110 | 5.0 | 12.0 | 0.00 | 0.00 | 0.00 | 77 | 1022.6 |
| 20260903104525 | 82 | 125 | 3.0 | 11.0 | 0.00 | 0.00 | 0.00 | 77 | 1022.6 |
| 20260903104026 | 82 | 148 | 3.0 | 9.0 | 0.00 | 0.00 | 0.00 | 77 | 1022.7 |
| 20260903103524 | 83 | 107 | 5.0 | 9.0 | 0.00 | 0.00 | 0.00 | 76 | 1022.6 |
| 20260903103024 | 82 | 109 | 3.0 | 9.0 | 0.00 | 0.00 | 0.00 | 77 | 1022.6 |
| 20260903102524 | 82 | 135 | 3.0 | 10.0 | 0.00 | 0.00 | 0.00 | 76 | 1022.6 |
| 20260903101521 | 82 | 123 | 4.0 | 8.0 | 0.00 | 0.00 | 0.00 | 76 | 1022.6 |
| 20260903101022 | 82 | 83 | 3.0 | 8.0 | 0.00 | 0.00 | 0.00 | 76 | 1022.6 |
| 20260903100520 | 82 | 113 | 4.0 | 8.0 | 0.00 | 0.00 | 0.00 | 77 | 1022.7 |
| 20260903100022 | 82 | 101 | 3.0 | 9.0 | 0.00 | 0.00 | 0.00 | 78 | 1022.7 |
| 20260903095522 | 81 | 104 | 1.0 | 9.0 | 0.00 | 0.00 | 0.00 | 79 | 1022.7 |
| 20260903095017 | 81 | 109 | 5.0 | 8.0 | 0.00 | 0.00 | 0.00 | 78 | 1022.8 |
| 20260903094517 | 81 | 119 | 3.0 | 8.0 | 0.00 | 0.00 | 0.00 | 79 | 1022.7 |
| 20260903094016 | 80 | 113 | 2.0 | 6.0 | 0.00 | 0.00 | 0.00 | 81 | 1022.6 |
| 20260903093514 | 80 | 96 | 1.0 | 7.0 | 0.00 | 0.00 | 0.00 | 81 | 1022.5 |
| 20260903093014 | 80 | 140 | 1.0 | 8.0 | 0.00 | 0.00 | 0.00 | 81 | 1022.5 |
| 20260903092519 | 79 | 122 | 4.0 | 8.0 | 0.00 | 0.00 | 0.00 | 81 | 1022.6 |
| 20260903092016 | 80 | 128 | 4.0 | 8.0 | 0.00 | 0.00 | 0.00 | 81 | 1022.4 |
| 20260903091517 | 80 | 116 | 2.0 | 9.0 | 0.00 | 0.00 | 0.00 | 80 | 1022.5 |
| 20260903091013 | 80 | 113 | 5.0 | 9.0 | 0.00 | 0.00 | 0.00 | 80 | 1022.5 |
| 20260903090514 | 80 | 183 | 3.0 | 7.0 | 0.00 | 0.00 | 0.00 | 79 | 1022.6 |
| 20260903090017 | 81 | 118 | 3.0 | 7.0 | 0.00 | 0.00 | 0.00 | 78 | 1022.5 |
| 20260903085511 | 81 | 78 | 1.0 | 8.0 | 0.00 | 0.00 | 0.00 | 78 | 1022.5 |
| 20260903085014 | 81 | 123 | 5.0 | 8.0 | 0.00 | 0.00 | 0.00 | 77 | 1022.5 |
| 20260903084523 | 81 | 103 | 3.0 | 8.0 | 0.00 | 0.00 | 0.00 | 77 | 1022.4 |
| 20260903084009 | 82 | 136 | 2.0 | 8.0 | 0.00 | 0.00 | 0.00 | 77 | 1022.3 |
| 20260903083508 | 81 | 101 | 3.0 | 7.0 | 0.00 | 0.00 | 0.00 | 76 | 1022.1 |
| 20260903083006 | 81 | 111 | 3.0 | 7.0 | 0.00 | 0.00 | 0.00 | 75 | 1022.1 |
| 20260903082505 | 81 | 101 | 2.0 | 5.0 | 0.00 | 0.00 | 0.00 | 76 | 1022.1 |
| 20260903082004 | 81 | 126 | 3.0 | 5.0 | 0.00 | 0.00 | 0.00 | 76 | 1022.1 |
| 20260903081503 | 81 | 122 | 3.0 | 6.0 | 0.00 | 0.00 | 0.00 | 76 | 1022.0 |
| 20260903081003 | 80 | 100 | 1.0 | 3.0 | 0.00 | 0.00 | 0.00 | 76 | 1021.9 |
| 20260903080600 | 80 | 98 | 1.0 | 3.0 | 0.00 | 0.00 | 0.00 | 76 | 1021.9 |
| 20260903080059 | 80 | 105 | 1.0 | 4.0 | 0.00 | 0.00 | 0.00 | 76 | 1021.9 |
| 20260903075559 | 80 | 111 | 1.0 | 4.0 | 0.00 | 0.00 | 0.00 | 77 | 1021.9 |
| 20260903075055 | 79 | 76 | 0.0 | 4.0 | 0.00 | 0.00 | 0.00 | 77 | 1021.8 |
| 20260903074557 | 79 | 65 | 0.0 | 2.0 | 0.00 | 0.00 | 0.00 | 77 | 1021.8 |
| 20260903074053 | 78 | 63 | 0.0 | 2.0 | 0.00 | 0.00 | 0.00 | 78 | 1021.7 |